Regional Weather Roundup
Issued by NWS

Home | Current Version | Previous Version | Text Only | Print | Product List | Glossary On
Versions: 1 2 3 4 5 6 7 8 9 10 11 12 13 14 15 16 17 18 19 20 21 22 23 24 25 26 27 28 29 30 31 32 33 34 35 36 37 38 39 40 41 42 43 44 45 46 47 48 49 50
000
ASUS43 KDMX 171806
RWRIA

WEATHER ROUNDUP FOR IOWA
NATIONAL WEATHER SERVICE DES MOINES IA
1200 PM CST TUE JAN 17 2017

NOTE: "FAIR" INDICATES FEW OR NO CLOUDS BELOW 12,000 FEET WITH NO
SIGNIFICANT WEATHER AND/OR OBSTRUCTIONS TO VISIBILITY.

* - THESE STATIONS ARE NOT NWS STATIONS...THUS NOT UNDER NWS
QUALITY CONTROL.  THEY ALSO DO NOT REPORT WEATHER SUCH
AS PRECIPITATION OR FOG.

IAZ001>003-012>014-020>022-031>034-043>046-171900-
   NORTHWEST IOWA

CITY           SKY/WX    TMP DP  RH WIND       PRES   REMARKS
CARROLL *      CLOUDY    32  32 100 W13       30.02F WCI  22
CHEROKEE *     CLOUDY    27  27 100 W7        30.05R FOG     WCI  19
DENISON *      CLOUDY    28  28 100 W9        30.03F WCI  20
LE MARS *      MOSUNNY   27  23  86 W8        30.08S WCI  18
ORANGE CITY *  SUNNY     25  25 100 W7        30.04S WCI  17
SHELDON *      CLOUDY    23  23 100 W9        30.02F WCI  13
SIOUX CITY     CLOUDY    27  21  78 NW12      30.08F WCI  17
6HR MIN TEMP:  20; 6HR MAX TEMP:  27;

SPENCER        CLOUDY    31  30  96 W10       30.02S FOG     WCI  22
6HR MIN TEMP:  29; 6HR MAX TEMP:  32;

STORM LAKE *   FOG       28  28 100 W15       30.02S VSB 3/4 WCI  17
$$

IAZ055>058-069>071-079>083-090>094-171900-
   SOUTHWEST IOWA

CITY           SKY/WX    TMP DP  RH WIND       PRES   REMARKS
ATLANTIC *     CLOUDY    32  30  93 VRB3      30.05F
AUDUBON *      CLOUDY    30  28  93 CALM      30.04F FOG
CLARINDA *     CLOUDY    32  32 100 NW9       30.10F FOG     WCI  24
COUNCIL BLFS * CLOUDY    28  28 100 W8        30.07F WCI  20
CRESTON *      CLOUDY    32  32 100 W13       30.05F FOG     WCI  22
HARLAN  *      CLOUDY    30  30 100 W7        30.09F FOG     WCI  23
LAMONI         CLOUDY    34  33  96 W15       30.03F FOG     WCI  24
6HR MIN TEMP:  33; 6HR MAX TEMP:  35;

RED OAK *      CLOUDY    32  30  93 VRB3      30.09S FOG
SHENANDOAH *   CLOUDY    32  30  93 W8        30.10F WCI  25
$$

IAZ047>049-059>061-072>074-084-171900-
   CENTRAL IOWA

CITY           SKY/WX    TMP DP  RH WIND       PRES   REMARKS
AMES           CLOUDY    34  34 100 W12       30.00F FOG     WCI  25
6HR MIN TEMP:  33; 6HR MAX TEMP:  34;

ANKENY *       CLOUDY    36  34  93 W12G20    30.02F FOG     WCI  27
BOONE *        CLOUDY    32  32 100 W13       29.99F FOG     WCI  22
CHARITON *     CLOUDY    36  34  93 NW13      30.01F WCI  27
DES MOINES     CLOUDY    35  33  92 NW12      30.03S FOG     WCI  27
6HR MIN TEMP:  34; 6HR MAX TEMP:  36; 6HR PCP: TRACE;

GRINNELL*      FOG       33  33 100 W14       29.99S VSB 1   WCI  23
KNOXVILLE *    CLOUDY    34  34 100 NW14G21   30.00S FOG     WCI  24
MARSHALLTOWN   CLOUDY    33  32  96 NW16      29.97F FOG     WCI  23
6HR MIN TEMP:  32; 6HR MAX TEMP:  33;

NEWTON *       CLOUDY    34  32  93 W16       29.99S FOG     WCI  23
PELLA *        FOG       34  34  98 NW15      30.01F VSB 1   WCI  25
PERRY *        CLOUDY    33  33 100 W10       30.03S FOG     WCI  25
$$

IAZ004>006-015-016-023>025-035-036-171900-
   NORTH CENTRAL IOWA

CITY           SKY/WX    TMP DP  RH WIND       PRES   REMARKS
ALGONA *       CLOUDY    32  32 100 NW10      29.99F FOG     WCI  24
CLARION *      FOG       32  32 100 NW12      29.99F VSB 3/4 WCI  23
ESTHERVILLE    CLOUDY    29  29 100 W7        30.00S FOG     WCI  22
6HR MIN TEMP:  26; 6HR MAX TEMP:  29;

FORT DODGE *   CLOUDY    32  28  86 CALM      30.01F
MASON CITY     FOG       31  30  96 NW17      29.97F VSB 1/2 WCI  19
6HR MIN TEMP:  30; 6HR MAX TEMP:  31;

FOREST CITY *  FOG       32  32 100 NW9       29.98S VSB 3/4 WCI  24
WEBSTER CITY * CLOUDY    32  32 100 NW10      29.98F FOG     WCI  24
IOWA FALLS *   CLOUDY    32  32  99 NW10      29.99S FOG     WCI  24
$$

IAZ007>011-017>019-026>030-037>042-050>054-066-171900-
   NORTHEAST IOWA

CITY           SKY/WX    TMP DP  RH WIND       PRES   REMARKS
CEDAR RAPIDS   CLOUDY    34  33  96 W13       29.94S FOG     WCI  25
6HR MIN TEMP:  32; 6HR MAX TEMP:  34;

CHARLES CITY * FOG       32  32 100 NW14      29.94F VSB 1   WCI  22
CLINTON *      CLOUDY    35  35 100 W15       29.92S FOG     WCI  25
DECORAH *      CLOUDY    34  32  93 VRB5      29.90S FOG     WCI  30
DUBUQUE        CLOUDY    33  33 100 W9        29.89F FOG     WCI  25
6HR MIN TEMP:  32; 6HR MAX TEMP:  33;

MONTICELLO *   CLOUDY    36  34  93 W14       29.92R FOG     WCI  27
OELWEIN *      FOG       32  32 100 W13       29.93S VSB 1/2 WCI  22
WATERLOO       FOG       33  31  92 W8        29.95S VSB 1   WCI  26
6HR MIN TEMP:  33; 6HR MAX TEMP:  33;

$$

IAZ064-065-067-068-078-171900-
   EAST CENTRAL IOWA

CITY           SKY/WX    TMP DP  RH WIND       PRES   REMARKS
DAVENPORT      CLOUDY    36  34  92 W14       29.93S WCI  27
6HR MIN TEMP:  33; 6HR MAX TEMP:  36;

IOWA CITY      CLOUDY    36  34  92 W9        29.97S FOG     WCI  29
6HR MIN TEMP:  35; 6HR MAX TEMP:  37;

MUSCATINE *    CLOUDY    37  34  87 W16G22    29.97S WCI  28
QUAD CITIES    CLOUDY    37  34  89 W13       29.92F WCI  29
6HR MIN TEMP:  35; 6HR MAX TEMP:  38;

$$

IAZ062-063-075>077-085>089-095>099-171900-
   SOUTHEAST IOWA

CITY           SKY/WX    TMP DP  RH WIND       PRES   REMARKS
BURLINGTON     CLOUDY    36  34  92 W10       29.97S WCI  28
6HR MIN TEMP:  35; 6HR MAX TEMP:  36;

FAIRFIELD *    CLOUDY    36  34  93 W15G21    29.98S FOG     WCI  26
FORT MADISON * CLOUDY    36  36 100 W9        30.00R WCI  29
KEOKUK *       CLOUDY    37  36  93 W13       30.00R WCI  29
OSKALOOSA *    CLOUDY    34  34  99 W17       29.99F FOG     WCI  24
OTTUMWA        CLOUDY    36  33  89 W10       29.99F WCI  28
6HR MIN TEMP:  34; 6HR MAX TEMP:  36;

WASHINGTON *   CLOUDY    36  36 100 W14G20    29.98S FOG     WCI  27
$$

ABBREVIATIONS USED IN REMARKS
   TC - TEMPERATURES IN CELSIUS
  WCI - WIND CHILL INDEX
   HX - HEAT INDEX
  VSB - VISIBILITY
$$





USA.gov is the U.S. government's official web portal to all federal, state and local government web resources and services.